Weather History for Antalya, Turkey

Change the Weather History Date:

Monday, January 30, 2012

  Actual Average Record
Temperature  
Mean Temperature 47 °F -  
Max Temperature 50 °F 59 °F 69 °F (2002)
Min Temperature 44 °F 43 °F 33 °F (2007)
Degree Days  
Heating Degree Days 18    
Moisture  
Dew Point 34 °F    
Average Humidity 62    
Maximum Humidity 76    
Minimum Humidity 49    
Precipitation  
Precipitation 0.01 in 0.25 in - ()
Sea Level Pressure  
Sea Level Pressure 29.89 in    
Wind  
Wind Speed 9 mph ()    
Max Wind Speed 21 mph    
Max Gust Speed -    
Visibility 6.2 miles    
Events Rain    
Averages and records for this station are not official NWS values.
T = Trace of Precipitation, MM = Missing Value Source: Averaged Metar Reports

Daily Weather History Graph

Daily Weather History Graph

Search for Another Location

Airport:

Trip Planner

Search our weather history database for the weather conditions in past years. The results will help you decide how hot, cold, wet, or windy it might be!

Date:

Astronomy

Jan. 30, 2012 Rise Set
Actual Time 7:01 AM EET 5:19 PM EET
Civil Twilight 6:33 AM EET 5:46 PM EET
Nautical Twilight 6:02 AM EET 6:17 PM EET
Astronomical Twilight 5:32 AM EET 6:48 PM EET
Moon 10:25 AM EET (1/30) No Moon Set
Length of Visible Light 11h 12m
Length of Day
10h 17m
Waxing Crescent, 43% of the Moon is Illuminated
Jan 30
Waxing Crescent
Jan 31
First Quarter
Feb 7
Full
Feb 14
Last Quarter
Feb 22
New

Hourly Weather History & Observations

Time (EET) Temp. Windchill Dew Point Humidity Pressure Visibility Wind Dir Wind Speed Gust Speed Precip Events Conditions
12:20 AM 46.4 °F 44.3 °F 33.8 °F 62% 29.98 in 6.2 mi North 4.6 mph - N/A   Mostly Cloudy
12:50 AM 48.2 °F - 33.8 °F 58% 29.98 in 6.2 mi NNW 4.6 mph - N/A   Mostly Cloudy
1:20 AM 46.4 °F 44.3 °F 35.6 °F 66% 29.98 in 6.2 mi North 4.6 mph - N/A   Mostly Cloudy
1:50 AM 46.4 °F 43.5 °F 35.6 °F 66% 29.98 in 6.2 mi North 5.8 mph - N/A   Mostly Cloudy
2:00 AM 46 °F - 35 °F 54% 29.98 in 6 mi North 5.8 mph - -   Mostly Cloudy
2:20 AM 44.6 °F 41.4 °F 35.6 °F 71% 29.98 in 6.2 mi NNW 5.8 mph - N/A   Mostly Cloudy
2:50 AM 46.4 °F 43.5 °F 33.8 °F 62% 29.98 in 6.2 mi North 5.8 mph - N/A   Mostly Cloudy
3:20 AM 46.4 °F 41.9 °F 32.0 °F 57% 29.98 in 6.2 mi North 9.2 mph - N/A Rain Light Rain Showers
3:50 AM 46.4 °F 42.4 °F 32.0 °F 57% 29.95 in 6.2 mi North 8.1 mph - N/A Rain Light Rain Showers
4:20 AM 44.6 °F 40.2 °F 33.8 °F 66% 29.95 in 6.2 mi North 8.1 mph - N/A Rain Light Rain Showers
4:50 AM 44.6 °F 41.4 °F 33.8 °F 66% 29.95 in 6.2 mi North 5.8 mph - N/A Rain Light Rain Showers
5:20 AM 44.6 °F 42.2 °F 35.6 °F 71% 29.95 in 6.2 mi North 4.6 mph - N/A Rain Light Rain Showers
5:50 AM 44.6 °F 41.4 °F 33.8 °F 66% 29.95 in 6.2 mi North 5.8 mph - N/A Rain Light Rain Showers
6:20 AM 44.6 °F 40.7 °F 33.8 °F 66% 29.95 in 6.2 mi NNW 6.9 mph - N/A Rain Light Rain Showers
6:50 AM 44.6 °F 40.2 °F 33.8 °F 66% 29.95 in 6.2 mi North 8.1 mph - N/A Rain Light Rain Showers
7:20 AM 44.6 °F 41.4 °F 33.8 °F 66% 29.95 in 6.2 mi North 5.8 mph - N/A Rain Light Rain Showers
7:50 AM 44.6 °F 39.2 °F 32.0 °F 61% 29.95 in 6.2 mi North 10.4 mph - N/A   Mostly Cloudy
8:00 AM 45 °F - 33 °F 50% 29.95 in 6 mi North 10.4 mph - - Rain Light Rain Showers
8:20 AM 46.4 °F 41.5 °F 32.0 °F 57% 29.95 in 6.2 mi North 10.4 mph - N/A   Mostly Cloudy
8:50 AM 46.4 °F 41.5 °F 32.0 °F 57% 29.95 in 6.2 mi North 10.4 mph - N/A   Mostly Cloudy
9:20 AM 46.4 °F 41.1 °F 33.8 °F 62% 29.95 in 6.2 mi North 11.5 mph - N/A   Mostly Cloudy
9:50 AM 46.4 °F 39.8 °F 33.8 °F 62% 29.95 in 6.2 mi NNW 16.1 mph - N/A   Mostly Cloudy
10:20 AM 46.4 °F 41.1 °F 35.6 °F 66% 29.95 in 6.2 mi NNW 11.5 mph - N/A Rain Light Rain
11:20 AM 48.2 °F - 37.4 °F 66% 29.92 in 6.2 mi NNW 15.0 mph - N/A Rain Light Rain
11:50 AM 50.0 °F - 37.4 °F 62% 29.92 in 6.2 mi North 15.0 mph - N/A   Mostly Cloudy
12:20 PM 48.2 °F - 37.4 °F 66% 29.89 in 6.2 mi North 11.5 mph - N/A   Mostly Cloudy
12:50 PM 48.2 °F - 39.2 °F 71% 29.89 in 6.2 mi North 12.7 mph - N/A   Mostly Cloudy
1:20 PM 46.4 °F 41.1 °F 39.2 °F 76% 29.89 in 6.2 mi North 11.5 mph - N/A   Mostly Cloudy
1:50 PM 46.4 °F 40.7 °F 39.2 °F 76% 29.86 in 6.2 mi North 12.7 mph - N/A   Mostly Cloudy
2:00 PM 47 °F - 40 °F 68% 29.87 in 6 mi North 12.7 mph - -   Partly Cloudy
2:20 PM 48.2 °F - 39.2 °F 71% 29.86 in 6.2 mi North 12.7 mph - N/A   Mostly Cloudy
2:50 PM 50.0 °F - 37.4 °F 62% 29.86 in 6.2 mi North 12.7 mph - N/A   Mostly Cloudy
3:20 PM 50.0 °F - 39.2 °F 66% 29.86 in 6.2 mi North 9.2 mph - N/A   Mostly Cloudy
3:50 PM 50.0 °F - 37.4 °F 62% 29.86 in 6.2 mi North 9.2 mph - N/A   Mostly Cloudy
4:20 PM 50.0 °F - 35.6 °F 58% 29.83 in 6.2 mi North 9.2 mph - N/A   Mostly Cloudy
4:50 PM 48.2 °F - 37.4 °F 66% 29.83 in 6.2 mi North 9.2 mph - N/A Rain Light Rain
5:20 PM 48.2 °F - 35.6 °F 62% 29.83 in 6.2 mi North 11.5 mph - N/A   Mostly Cloudy
5:50 PM 48.2 °F - 33.8 °F 58% 29.83 in 6.2 mi North 13.8 mph - N/A   Mostly Cloudy
6:20 PM 46.4 °F 39.5 °F 33.8 °F 62% 29.83 in 6.2 mi North 17.3 mph - N/A   Mostly Cloudy
6:50 PM 46.4 °F 39.5 °F 33.8 °F 62% 29.83 in 6.2 mi North 17.3 mph - N/A   Mostly Cloudy
7:20 PM 46.4 °F 40.1 °F 33.8 °F 62% 29.83 in 6.2 mi North 15.0 mph - N/A   Mostly Cloudy
7:50 PM 46.4 °F 40.1 °F 33.8 °F 62% 29.83 in 6.2 mi North 15.0 mph - N/A   Mostly Cloudy
8:00 PM 46 °F - 33 °F 49% 29.82 in 6 mi North 15.0 mph - -   Partly Cloudy
8:20 PM 46.4 °F 40.4 °F 32.0 °F 57% 29.80 in 6.2 mi North 13.8 mph - N/A   Mostly Cloudy
8:50 PM 46.4 °F 40.1 °F 32.0 °F 57% 29.80 in 6.2 mi North 15.0 mph - N/A   Mostly Cloudy
9:20 PM 46.4 °F 41.1 °F 30.2 °F 53% 29.80 in 6.2 mi North 11.5 mph - N/A   Mostly Cloudy
9:50 PM 46.4 °F 40.7 °F 28.4 °F 50% 29.80 in 6.2 mi North 12.7 mph - N/A   Mostly Cloudy
10:20 PM 46.4 °F 40.4 °F 28.4 °F 50% 29.80 in 6.2 mi North 13.8 mph - N/A   Mostly Cloudy
10:50 PM 44.6 °F 36.6 °F 28.4 °F 53% 29.80 in 6.2 mi North 19.6 mph - N/A   Mostly Cloudy
11:20 PM 44.6 °F 36.4 °F 26.6 °F 49% 29.77 in 6.2 mi North 20.7 mph - N/A   Mostly Cloudy
11:50 PM 44.6 °F 37.4 °F 26.6 °F 49% 29.77 in 6.2 mi North 16.1 mph - N/A   Mostly Cloudy